Regional Weather Roundup
Issued by NWS State College, PA

Current Version | Previous Version | Text Only | Print | Product List | Glossary On
Versions: 1 2 3 4 5 6 7 8 9 10 11 12 13 14 15 16 17 18 19 20 21 22 23 24 25 26 27 28 29 30 31 32 33 34 35 36 37 38 39 40 41 42 43 44 45 46 47 48 49 50
000
ASUS41 KCTP 250310
RWRCTP

REGIONAL WEATHER ROUNDUP
NATIONAL WEATHER SERVICE STATE COLLEGE PA
1100 PM EDT SUN MAY 24 2015

Note: "fair" indicates few or no clouds below 12,000 feet with no
significant weather and/or obstructions to visibility.

* = STATION THAT DOES NOT REPORT PRECIPITATION /E.G. RAIN...SNOW...ETC/
    THUNDER OR FOG.

PAZ002>004-007>009-013>016-020>023-029>032-250400-
WESTERN PENNSYLVANIA

CITY           SKY/WX    TMP DP  RH WIND       PRES   REMARKS
ERIE           CLOUDY    67  50  54 S8        30.17S
MEADVILLE      CLOUDY    69  43  38 CALM      30.21S
FRANKLIN*      CLOUDY    66  45  45 S6        30.24S
NEW CASTLE     MOCLDY    64  49  58 CALM      30.21R
BEAVER COUNTY  NOT AVBL
BUTLER*        PTCLDY    66  43  42 CALM      30.24R
PITTSBURGH INT PTCLDY    66  48  52 CALM      30.21R
PITTSBURGH     MOCLDY    68  41  37 CALM      30.21R
INDIANA*       CLEAR     59  50  72 E3        30.27R
LATROBE        NOT AVBL
WASHINGTON CO* PTCLDY    55  52  88 CALM      30.23S
$$

PAZ004>006-010>012-017>019-024>028-033>037-041-042-045-046-049>053-250400-
CENTRAL PENNSYLVANIA

CITY           SKY/WX    TMP DP  RH WIND       PRES   REMARKS
BRADFORD       CLOUDY    60  49  66 CALM      30.26R
DUBOIS         CLOUDY    68  45  43 SE3       30.24S
CLEARFIELD     MOCLDY    59  49  69 N6        30.25S
JOHNSTOWN      MOCLDY    63  44  50 SE7       30.27S
ALTOONA        PTCLDY    65  44  46 S5        30.26S
STATE COLLEGE  MOCLDY    67  46  45 SW3       30.25S
WILLIAMSPORT   MOCLDY    64  51  62 CALM      30.22S
SELINSGROVE    CLOUDY    69  49  48 SW3       30.24S
FT INDIANTOWN  MOCLDY    63  51  65 N2        30.26S
CAPITAL CITY   PTCLDY    70  49  47 SE8       30.25S
HARRISBURG     MOCLDY    68  54  60 S5        30.24S
YORK           PTCLDY    67  57  70 CALM      30.26S
$$

PAZ038>040-043-044-047-048-054-055-060>062-067>071-250400-
EASTERN PENNSYLVANIA

CITY           SKY/WX    TMP DP  RH WIND       PRES   REMARKS
SCRANTON       MOCLDY    68  44  42 S3        30.24F
MOUNT POCONO   CLOUDY    60  44  55 W3        30.29F
ALLENTOWN      CLOUDY    66  43  43 SW5       30.26S
QUAKERTOWN*    MOCLDY    64  50  59 SW3       30.28F
READING        MOCLDY    69  52  54 S5        30.25S
LANCASTER      MOCLDY    67  56  67 S8        30.26S
COATESVILLE    MOCLDY    66  55  68 SW3       30.29F
POTTSTOWN      MOCLDY    65  54  67 CALM      30.28F
BLUE BELL      PTCLDY    63  52  67 CALM      30.27F
DOYLESTOWN     MOCLDY    66  47  50 SW3       30.26F
WILLOW GROVE   NOT AVBL
NORTH PHILA    PTCLDY    69  51  52 S6        30.29S
PHILADELPHIA   PTCLDY    67  54  63 S5        30.29R
$$


USA.gov is the U.S. government's official web portal to all federal, state and local government web resources and services.